Wind_Speed
7 5 4 5 4 5 2 3 1 3 2 2 2 1 1 1 2 3 1 4 10 15 16 16 15 16 19 18 16 11 8 8 9 9 9 11 11 10 9 12 16 16 15 16 16 20 19 18 17
5 3 4 3 5 3 4 4 4 2 2 3 3 1 1 2 0 2 0 7 9 13 16 17 17 17 18 18 17 15 9 9 11 10 12 12 13 12 11 13 17 17 17 17 19 17 16 17 17
3 4 4 4 4 4 4 3 3 1 3 2 1 1 1 1 2 1 2 6 8 11 15 17 17 17 18 19 17 15 11 9 11 11 11 11 13 14 13 14 15 17 18 17 17 15 16 18 19
1 5 4 4 3 3 3 2 2 1 2 4 1 4 2 3 0 1 5 6 9 13 16 16 17 18 17 17 16 16 12 8 8 6 12 11 12 12 14 15 15 17 16 15 15 17 17 18 19
5 3 4 3 3 2 2 1 3 1 3 2 1 2 3 2 2 3 5 5 9 13 16 18 17 17 18 18 16 13 11 12 5 6 6 10 10 9 12 16 17 18 15 15 17 18 19 19 17
4 3 3 2 3 2 2 3 3 1 1 3 1 0 3 2 2 3 4 5 9 13 17 16 16 16 16 17 17 14 12 11 8 10 9 10 11 10 7 12 19 20 18 19 22 21 21 20 19
5 3 3 3 3 2 4 6 4 3 1 3 4 1 2 4 4 3 3 6 10 12 14 14 15 15 15 15 16 15 13 11 8 8 12 13 13 12 8 6 15 21 20 21 24 24 25 21 18
4 4 3 3 3 4 3 3 3 4 3 1 3 3 4 3 4 3 5 8 9 11 12 13 13 15 16 16 14 14 14 12 11 10 9 16 16 14 18 19 17 26 23 23 25 26 25 22 21
3 3 3 4 6 3 1 2 2 1 1 2 4 4 3 4 4 4 7 9 10 9 10 12 14 15 16 16 15 14 13 12 12 10 11 10 13 18 19 20 13 14 21 20 19 24 24 22 19
4 3 5 3 4 3 2 2 1 0 1 4 3 4 5 5 5 5 7 11 11 11 11 13 14 15 16 17 17 15 14 12 10 10 6 8 11 12 13 13 13 9 19 19 17 20 22 22 19
0 3 2 2 2 2 2 2 2 3 5 8 6 4 6 7 7 8 12 11 10 9 10 12 14 15 17 17 18 17 14 13 11 9 6 6 12 13 11 11 9 7 21 20 20 17 21 21 19
1 1 1 2 1 1 2 2 4 7 7 5 7 4 4 6 9 13 13 11 9 8 10 11 13 14 15 17 17 17 15 13 12 11 10 7 9 11 18 13 7 10 18 20 23 23 22 19 18
2 1 1 1 0 3 3 6 6 9 11 7 6 5 6 7 12 14 12 12 10 9 9 11 13 15 15 17 18 17 16 13 12 11 10 10 9 13 13 21 17 4 17 26 25 26 23 21 16
2 2 1 1 3 2 3 4 4 5 1 2 5 8 6 8 12 14 15 16 12 9 8 9 11 13 15 18 19 19 18 15 12 9 10 12 12 11 15 18 23 10 11 26 32 28 27 25 18
3 1 3 2 1 3 1 7 9 5 3 5 6 6 7 9 13 17 18 18 14 9 7 8 9 11 15 18 18 19 19 17 12 9 9 10 12 10 13 12 26 24 8 14 34 29 24 25 19
3 4 4 0 2 3 4 9 2 3 2 9 7 6 8 9 10 14 14 15 11 9 7 5 9 11 14 17 18 18 18 16 10 8 10 11 8 9 12 15 16 14 10 14 22 23 25 25 18
6 1 1 6 2 2 2 8 4 0 2 8 8 7 8 8 9 7 7 4 7 8 4 6 9 12 15 17 17 17 15 12 7 9 9 11 9 9 10 14 14 17 21 17 20 25 27 25 22
2 1 3 5 2 2 5 19 15 12 7 11 8 7 8 7 7 8 3 2 6 6 4 6 9 13 14 15 16 14 10 7 10 9 9 10 11 10 11 10 17 17 23 28 27 26 25 26 23
4 2 3 4 3 4 5 12 17 12 6 9 8 8 8 7 4 3 1 4 6 5 3 6 10 10 12 14 17 17 14 13 5 7 11 11 10 11 12 11 14 18 24 28 27 29 31 24 24
2 0 4 5 2 3 6 20 11 5 5 4 5 7 8 4 5 7 4 6 7 5 4 6 8 10 10 11 14 13 16 7 7 7 11 11 10 10 13 12 13 16 19 23 24 27 20 14 29
0 2 1 2 8 1 8 7 6 2 3 2 2 4 4 5 6 4 4 6 7 4 3 5 8 9 9 11 13 13 8 7 6 9 12 11 12 10 12 14 15 17 21 24 29 30 26 16 24
3 1 2 2 5 3 4 5 5 5 8 4 5 6 7 7 5 4 3 5 5 3 2 4 7 8 8 10 10 10 9 7 9 13 14 14 11 11 11 16 19 22 24 28 30 31 28 23 22
1 1 1 2 2 3 4 3 7 4 4 4 6 6 6 6 6 6 5 5 1 2 1 4 5 6 7 9 8 8 8 8 10 10 12 12 11 10 11 11 18 25 26 30 28 30 29 27 22
3 2 3 3 2 3 3 3 5 2 3 5 3 6 6 6 5 4 3 1 3 2 1 3 4 5 6 8 7 8 9 11 12 12 14 15 14 13 14 13 15 27 27 29 31 30 31 29 23
2 2 4 6 4 4 1 2 9 5 4 5 6 8 7 5 4 4 4 3 2 2 2 2 4 5 7 8 8 10 11 12 12 14 15 16 15 15 16 16 11 27 27 28 29 29 25 28 26
1 2 5 4 1 5 1 5 4 5 5 7 7 7 6 5 4 3 3 3 1 2 2 2 4 5 7 7 9 9 9 10 11 12 13 13 16 14 14 13 4 21 29 31 26 23 23 24 26
2 1 3 7 1 3 3 7 8 4 8 6 8 6 8 6 5 2 4 2 2 3 1 1 3 4 5 7 8 8 10 9 11 11 10 12 12 13 14 12 9 23 29 27 26 23 22 23 26
1 4 3 3 0 4 5 6 5 4 5 5 7 9 7 4 4 2 3 4 3 3 2 1 2 3 4 6 8 9 9 9 9 9 9 10 11 12 13 10 13 13 22 24 21 20 20 20 21
1 1 3 2 3 4 1 6 7 7 7 7 7 8 7 6 5 4 3 5 5 4 3 2 3 4 5 6 6 7 7 8 9 9 10 11 12 12 11 12 10 14 21 19 17 17 19 19 18
1 3 4 4 4 1 2 7 1 6 5 5 9 8 6 4 5 4 5 7 7 6 4 3 3 4 6 5 5 7 7 7 7 8 9 9 9 9 11 11 9 10 17 15 16 14 13 15 17
Wind_Direction
2 8 1 37 64 67 290 264 288 301 319 353 66 192 150 57 192 223 321 2 347 353 351 346 339 343 348 349 347 332 291 274 252 241 232 210 210 208 200 182 159 162 163 152 150 139 137 132 131
9 1 38 72 89 83 259 253 212 225 35 122 81 19 210 228 312 281 332 331 341 347 349 349 344 341 346 349 348 347 292 276 260 245 240 222 213 211 206 193 172 171 158 152 142 142 142 137 134
29 30 77 90 107 177 209 229 232 354 85 22 353 35 38 227 230 228 330 320 327 340 345 347 343 342 343 345 354 345 340 268 262 243 237 232 223 208 211 203 192 189 166 154 147 143 142 140 133
29 26 43 81 190 230 203 212 257 343 151 56 105 303 289 236 235 2 324 321 327 338 343 346 342 342 341 341 340 348 341 319 265 257 226 223 231 224 208 207 200 175 158 151 153 149 148 143 140
43 57 59 76 257 254 242 231 152 245 298 350 12 293 258 265 256 310 329 328 329 337 340 341 342 338 340 338 335 335 344 339 240 206 222 214 214 234 222 208 200 173 176 172 162 157 153 151 149
46 98 73 220 246 260 258 203 136 203 281 294 44 70 263 279 260 309 315 330 333 335 336 336 339 337 335 336 333 331 317 337 330 267 228 214 202 211 239 225 206 191 190 173 171 167 157 159 154
105 80 190 175 228 278 215 158 174 192 265 274 136 258 280 267 245 271 304 325 329 332 329 333 338 337 332 331 331 331 329 318 297 297 253 235 211 192 222 260 223 202 191 181 171 168 167 168 157
105 91 114 228 191 264 171 144 127 148 254 138 162 226 281 260 213 258 307 318 320 324 332 336 340 339 335 332 328 327 328 317 315 277 265 240 226 231 242 223 227 230 193 189 175 167 168 172 163
132 69 197 214 157 235 161 149 185 123 207 230 207 185 234 181 198 255 301 302 312 319 328 339 344 343 339 334 330 323 324 306 313 309 281 234 242 236 229 220 236 259 168 175 175 173 171 170 163
85 127 223 169 174 187 194 176 205 330 257 259 249 240 219 207 226 263 280 293 307 315 331 339 341 342 341 336 331 329 319 317 299 323 293 237 218 223 228 226 226 249 201 170 181 177 173 167 157
59 184 171 200 190 164 187 268 199 193 255 216 199 223 212 227 249 270 271 272 285 294 319 333 339 341 340 339 336 331 326 314 306 296 297 298 219 226 220 210 205 215 157 168 174 180 182 177 171
82 105 198 191 308 95 238 317 276 201 233 178 205 195 164 221 247 252 261 273 275 289 317 330 334 334 335 334 333 331 326 315 307 298 285 276 258 253 235 232 184 187 197 183 176 184 182 171 166
80 177 36 39 124 273 314 263 252 259 250 254 257 202 218 240 256 269 272 272 271 283 307 323 329 327 331 331 329 327 325 317 302 292 280 275 277 257 249 254 242 203 193 193 186 181 172 162 162
113 109 116 282 289 272 273 269 20 290 165 262 219 243 250 253 265 282 275 271 263 268 284 306 317 326 331 330 326 324 322 315 295 281 284 276 280 268 264 278 245 220 200 198 180 175 164 161 169
123 11 321 224 300 315 354 274 231 252 323 287 249 263 263 256 279 264 277 278 263 257 271 301 321 318 321 324 323 319 320 316 299 275 270 276 278 281 260 294 240 220 206 178 173 172 177 171 177
54 57 17 42 21 353 27 279 310 12 247 272 279 283 276 277 276 289 292 277 246 236 254 306 317 316 321 321 322 321 319 315 302 270 272 273 277 287 271 252 236 221 193 190 184 174 168 166 182
15 251 243 326 44 295 146 274 268 152 62 281 283 278 282 285 290 309 323 260 220 226 258 310 318 323 324 324 325 325 321 313 303 281 272 272 279 273 274 252 257 215 198 206 193 176 173 179 189
214 332 274 239 326 293 248 262 269 273 271 261 275 287 283 281 279 322 329 195 203 222 273 314 326 324 326 329 328 331 330 320 308 288 283 279 272 274 275 265 248 200 202 188 185 178 180 189 189
130 161 262 273 48 325 252 277 283 285 241 260 266 264 270 270 274 298 202 181 206 234 281 316 319 328 334 338 342 341 336 334 335 296 299 296 286 281 275 272 249 236 183 177 185 176 176 180 191
100 148 291 282 41 2 329 296 281 292 268 236 252 253 254 258 282 250 224 216 228 244 278 312 328 334 339 343 342 331 325 335 333 324 318 311 293 288 280 273 257 227 214 188 186 184 173 168 188
178 198 190 223 326 197 311 295 343 315 326 304 226 246 252 242 267 277 242 242 234 239 276 322 334 344 345 350 344 348 351 4 349 347 335 323 305 300 279 267 259 233 221 200 190 193 181 166 180
253 163 112 43 28 291 6 278 314 338 314 295 289 262 260 268 274 275 266 256 231 231 280 326 344 354 347 353 356 0 3 346 336 343 335 333 326 318 302 269 250 217 214 196 193 195 191 182 175
285 344 65 80 58 346 351 71 272 354 317 303 339 324 277 262 251 273 282 273 163 194 278 340 355 352 354 1 3 355 350 342 334 343 343 346 341 329 333 304 251 212 210 198 195 184 190 193 178
142 119 43 56 66 25 282 115 287 242 237 307 327 325 306 299 292 281 354 106 129 195 303 348 358 8 2 12 5 351 349 347 342 350 358 3 357 354 354 349 225 201 202 191 195 194 192 194 192
130 56 344 358 12 219 350 352 246 256 253 237 280 299 303 309 319 319 303 270 196 213 309 4 10 13 13 17 13 3 358 351 345 353 355 2 351 355 356 5 190 196 194 180 188 194 197 204 200
161 160 146 214 275 276 66 241 244 213 271 257 260 265 287 298 293 278 276 252 201 189 288 8 33 18 13 21 20 15 358 354 348 351 347 357 346 346 358 15 179 196 190 190 185 189 198 202 212
209 64 139 103 53 38 263 283 302 269 275 268 274 284 272 277 285 270 144 155 198 183 272 22 55 42 18 27 20 16 7 358 356 352 348 347 346 353 359 20 45 168 187 185 184 194 202 211 209
55 149 77 9 42 300 293 285 243 254 239 263 268 264 277 269 258 259 154 171 199 194 201 160 95 76 49 37 26 17 17 2 1 359 355 354 350 359 28 24 53 131 163 173 184 199 203 196 199
104 34 51 109 125 173 277 274 216 220 211 226 254 269 269 265 244 240 197 168 192 203 189 187 136 115 77 45 35 29 22 22 8 8 360 8 9 11 17 28 50 78 126 148 170 187 192 191 189
313 210 168 128 241 69 139 272 275 247 278 283 277 280 276 242 230 204 194 170 186 203 195 199 168 126 102 68 32 29 34 31 32 35 14 26 20 19 20 40 66 88 105 136 149 142 154 179 192
Height
791 790 790 789 818 832 837 829 823 819 817 818 817 818 818 820 819 829 822 822 821 820 817 815 813 812 811 808 805 803 802 803 803 803 803 802 805 806 805 804 803 808 809 809 810 811 812 815 817
791 791 791 806 832 841 840 828 821 819 819 820 820 821 822 821 823 822 822 822 820 819 818 815 813 811 809 807 806 803 800 801 802 802 803 802 802 803 805 805 805 806 808 809 810 812 814 815 816
792 791 801 823 845 838 836 823 820 816 817 818 822 824 824 822 822 822 822 822 822 820 818 815 813 810 808 807 805 802 801 800 800 800 802 802 801 800 803 805 806 806 807 809 810 813 815 816 817
792 794 810 826 825 825 823 819 820 819 818 819 823 824 825 822 822 822 822 822 821 820 818 816 813 811 808 805 804 803 800 798 797 798 798 799 800 801 800 804 805 805 806 808 810 813 816 817 818
795 805 826 830 826 822 822 818 819 820 821 821 822 822 824 821 821 822 821 821 821 819 817 815 812 810 807 805 803 802 801 799 798 797 794 796 798 800 801 802 804 803 805 807 810 813 814 817 819
805 811 827 833 828 820 819 817 818 821 822 821 822 825 823 821 821 821 821 820 820 818 816 814 812 810 807 805 803 801 800 798 797 797 796 794 796 799 801 802 802 803 804 805 808 811 813 816 818
808 820 824 829 828 823 817 817 819 820 823 821 821 823 822 821 820 820 820 820 819 817 816 814 811 809 807 804 803 801 800 798 796 796 795 795 796 796 799 801 801 802 802 805 806 808 812 815 818
809 819 828 830 832 822 816 816 818 819 820 820 819 824 821 819 819 819 819 819 818 817 815 813 810 807 805 804 802 800 799 798 796 794 794 794 795 795 798 795 796 799 798 805 806 807 811 815 817
804 822 827 820 829 817 817 817 817 817 819 819 817 817 817 817 818 819 818 817 816 815 814 812 809 807 804 802 800 799 798 797 795 795 793 793 793 795 795 794 795 796 788 801 804 808 812 816 819
810 825 816 817 817 818 817 817 817 818 819 818 816 814 815 816 817 818 816 815 813 813 811 809 807 805 804 802 800 798 797 795 795 793 791 791 792 794 794 793 795 796 794 800 806 810 813 816 819
815 817 817 816 816 816 816 817 817 818 817 815 813 811 812 814 815 814 813 813 813 811 809 808 806 805 803 801 799 797 795 793 793 791 791 790 789 791 794 794 793 796 792 802 808 812 815 817 819
813 816 816 817 816 817 817 816 817 817 808 805 806 806 809 812 813 811 811 810 810 809 808 807 806 805 802 800 798 796 794 792 790 790 789 788 787 789 791 795 794 795 799 803 804 811 816 817 819
815 818 817 817 817 818 818 819 818 812 805 804 804 804 807 810 808 807 807 807 807 807 806 806 804 802 801 799 797 795 792 790 789 788 788 787 788 788 788 792 794 794 796 799 805 810 812 814 820
816 817 818 817 819 818 819 818 818 801 802 802 803 803 805 805 804 805 804 803 804 804 804 803 802 802 800 798 797 795 793 790 787 786 785 786 787 787 786 788 791 793 793 795 801 806 810 814 821
817 817 818 818 819 820 821 815 814 804 804 803 804 805 805 803 803 802 799 799 800 801 801 801 800 800 798 797 795 792 790 788 785 783 784 785 786 785 785 785 787 791 794 794 794 803 808 814 820
820 823 826 819 820 822 823 813 799 804 804 804 804 806 804 801 801 798 796 795 796 797 798 800 799 798 796 794 792 789 787 785 783 782 782 783 784 784 784 783 785 788 792 796 798 800 808 812 820
832 823 823 822 822 822 824 817 801 803 803 805 804 804 802 800 798 795 792 791 793 796 797 797 797 796 795 794 791 788 785 783 781 781 780 781 782 783 782 781 784 786 792 796 799 802 807 813 819
819 822 824 827 825 825 828 817 805 802 804 801 800 802 801 799 795 791 790 790 792 795 795 795 796 795 794 792 789 786 783 782 780 779 779 779 779 781 781 781 781 785 789 793 797 801 808 812 818
824 824 826 825 828 831 829 824 804 796 801 801 798 799 798 797 793 790 789 789 791 793 794 795 794 792 791 789 786 784 782 779 778 778 778 777 777 778 779 779 779 779 782 790 795 801 804 811 817
825 826 828 828 828 834 830 809 800 796 794 793 792 794 795 794 792 790 788 789 791 793 793 793 793 791 790 789 787 785 781 778 777 777 776 775 775 776 776 776 777 778 784 788 794 799 803 807 813
829 825 829 831 837 835 839 806 793 786 790 787 788 789 790 791 791 788 788 788 790 792 792 792 791 790 790 787 786 784 780 778 777 775 775 774 772 772 773 774 773 777 782 786 791 796 799 804 811
822 835 835 834 840 830 836 821 794 794 794 786 787 790 791 791 789 788 788 788 789 790 791 791 790 789 788 786 785 783 781 779 777 776 775 773 771 770 770 770 772 775 779 782 787 792 796 802 807
831 839 838 837 840 846 833 843 802 797 783 781 785 786 789 790 789 788 788 788 789 789 790 790 789 788 787 786 784 783 781 780 778 777 775 773 770 768 767 763 762 767 773 776 782 788 794 800 804
838 840 845 849 850 873 834 837 805 795 785 785 785 789 788 788 788 788 789 789 789 790 790 789 787 787 786 784 783 782 780 779 778 777 773 771 768 765 763 760 759 764 769 773 780 786 790 797 802
836 838 861 846 868 845 843 848 800 785 786 788 786 788 787 788 789 788 789 789 789 789 789 788 787 786 785 783 782 783 781 779 776 774 772 771 768 766 763 758 757 761 767 772 780 784 789 795 800
834 832 853 846 852 850 844 825 788 785 787 788 788 787 786 785 787 787 787 788 789 789 789 788 787 786 785 783 782 782 781 779 777 775 773 772 769 767 765 761 757 761 766 772 778 783 789 793 799
836 844 844 877 918 878 829 811 790 781 781 782 783 783 782 783 784 785 786 787 788 789 788 787 787 785 785 784 782 782 781 779 777 776 773 773 771 768 766 762 761 760 765 771 777 783 788 793 797
835 842 843 866 836 844 836 825 797 774 772 773 777 778 779 780 782 784 785 786 788 788 788 788 787 785 785 784 782 781 781 780 779 777 776 775 772 770 763 763 761 761 764 770 777 783 787 792 797
847 851 846 845 853 859 870 806 793 777 774 772 773 776 777 778 781 782 784 785 787 788 788 788 787 786 784 784 782 781 781 781 779 778 775 774 771 769 768 765 763 761 767 773 778 783 788 792 796
839 828 832 839 851 884 872 821 774 783 778 778 778 777 776 776 778 780 781 784 787 787 788 789 788 787 785 783 782 781 780 781 782 782 777 777 774 773 770 769 768 768 771 775 779 784 788 791 795